DELTA 1 DEB, 14471

Orbit data source: Space-Track

DELTA 1 DEB, 14471 is space debris in SSO originally from a launch on Thu, 29 Jul 1976 UTC launched from the Air Force Western Test Range (AFWTR). Debris objects in space refer to the collection of defunct objects orbiting the Earth. Examples of debris include non-operational satellites, rocket bodies, and fragments generated from explosions, collisions, or faulty payload assembly.

Loading next visibility...
Identifier
14471, 1976-077EN
Orbit
SSO
Country
Flag of USUS
Related business
Manufacturer
Unknown
Mission
Spacecraft
Bus & Motor
Unknown
Mass
Unknown
Launch date (UTC)
1976-07-29 (50 years ago)
Launch vehicle
Unknown
Launch site
Air Force Western Test Range (AFWTR)
Object type
Payload
Rocket body
Debris
Shape & HBR
Unknown shape, 0.1 m
Radar Cross Section
Small (<0.1 m²)

Expand to show TLE details & history
Last TLE update: 2 days ago

TLE from 2 days ago
0 DELTA 1 DEB
1 14471U 76077EN  26117.21262907  .00000117  00000-0  14283-2 0  9999
2 14471 102.4540  89.8451 0128748 326.1722  49.4981 12.25590616932986
Epoch: 2026-04-27T05:06Z
TLE epoch observation values (Epoch: 2026-04-27T05:06:11.151Z)
Latitude
16.38446°
Longitude
154.38822°
Altitude
1,504.483 km
Speed
7.143 km/s
True Right ascension
05h 44m 33s
True Declination
16° 18' 02"
Sunlit
Object was in daylight at epoch
Visualization orbit readout
Latitude
Unknown
Longitude
Unknown
Altitude
Unknown
Speed
Unknown
Apparent Right ascension
Unknown
Apparent Declination
Unknown
Sunlit
N/A
Visualization observer readout
Local Sidereal Time
16:45:18
Azimuth
Unknown
Elevation
Unknown
Doppler factor
Unknown
Orbital elements
Apogee altitude
1,668.182 km
Perigee altitude
1,463.626 km
Semi-major axis
7,944.041 km
Eccentricity
0.01287
Inclination
102.454°
RAAN
89.8451°
Arg. of periapsis
326.1722°
True anomaly
50.6317°
Mean anomaly
49.4981°
Eccentric anomaly
50.06372°
Mean motion
3.06536 °/min
Orbital period
117.44 mins
BSTAR
0.0014283
Loading maneuver chart data...
Computing Atmospheric mass density...
Loading historical data...
Loading historical data...
Loading historical data...
Loading historical data...
Loading historical data...
Loading historical data...
Loading historical data...

Documentation

Showing up to 5 results
|